Hourly Data Report for October 12, 2016

All times are specified in Local Standard Time (LST). Add 1 hour to adjust for Daylight Saving Time where and when it is observed.

HALL BEACH A
NUNAVUT

68°46'33.000" N
81°14'33.000" W
9.10 m
2402354
71293
YUX

Download Data

Hourly Data (October 2016)
Hourly Data Report for October 12, 2016
Temp Definition
°C
Dew Point Temp Definition
°C
Rel Hum Definition
%
Wind Dir Definition
10's deg

Wind Spd Definition
km/h
Visibility Definition
km
Stn Press Definition
kPa
Hmdx Definition


Wind Chill Definition


Weather Definition


TIME
00:00 Legend Double Dagger -17.7 -19.4 87 33 17 4.8 101.19   -27 Fog
01:00 Legend Double Dagger -17.4 -18.9 88 33 15 11.3 101.22   -26 LegendNANA
02:00 Legend Double Dagger -17.3 -19.0 87 32 22 16.1 101.23   -28 LegendNANA
03:00 Legend Double Dagger -14.4 -15.7 90 31 18 16.1 101.27   -23 LegendNANA
04:00 Legend Double Dagger -13.4 -14.7 90 31 17 16.1 101.28   -21 LegendNANA
05:00 Legend Double Dagger -12.7 -13.9 91 34 17 16.1 101.26   -21 LegendNANA
06:00 Legend Double Dagger -13.6 -14.9 90 32 13 2.8 101.27   -21 Fog
07:00 Legend Double Dagger -15.4 -16.8 89 33 11 9.7 101.27   -22 Fog
08:00 Legend Double Dagger -13.5 -14.8 90 36 8 16.1 101.26   -19 LegendNANA
09:00 Legend Double Dagger -13.2 -14.2 92 35 8 4.8 101.25   -18 Fog
10:00 Legend Double Dagger -7.1 -7.7 95 8 5 16.1 101.24   -10 LegendNANA
11:00 Legend Double Dagger -8.8 -9.6 94   0 16.1 101.24     LegendNANA
12:00 Legend Double Dagger -5.4 -5.8 97 14 9 16.1 101.22   -9 Snow
13:00 Legend Double Dagger -5.4 -5.9 96 20 4 8.1 101.22   -7 Snow
14:00 Legend Double Dagger -5.2 -5.7 96 17 13 16.1 101.22   -10 LegendNANA
15:00 Legend Double Dagger -5.5 -7.5 86 19 11 16.1 101.23   -10 LegendNANA
16:00 Legend Double Dagger -7.0 -8.3 91 27 5 16.1 101.22   -10 LegendNANA
17:00 Legend Double Dagger -5.2 -7.8 82 16 8 16.1 101.22   -9 LegendNANA
18:00 Legend Double Dagger -4.7 -8.4 75 18 15 16.1 101.22   -10 LegendNANA
19:00 Legend Double Dagger -4.4 -7.8 77 13 13 16.1 101.23   -9 Snow
20:00 Legend Double Dagger -4.1 -7.4 78 13 17 16.1 101.22   -10 Snow
21:00 Legend Double Dagger -4.0 -8.0 74 12 22 16.1 101.20   -11 LegendNANA
22:00 Legend Double Dagger -4.5 -8.6 73 12 22 16.1 101.19   -11 LegendNANA
23:00 Legend Double Dagger -4.4 -8.4 74 14 18 16.1 101.18   -10 LegendNANA

Notes on Data Quality.

Legend

  • E = Estimated
  • M = Missing
  • NA = Not Available
  • ‡ = Partner data that is not subject to review by the National Climate Archives
Date modified: